Regional Weather Roundup
Issued by NWS

Home | Current Version | Previous Version | Text Only | Print | Product List | Glossary On
Versions: 1 2 3 4 5 6 7 8 9 10 11 12 13 14 15 16 17 18 19 20 21 22 23 24 25 26 27 28 29 30 31 32 33 34 35 36 37 38 39 40 41 42 43 44 45 46 47 48 49 50
000
ASUS44 KLUB 292110
RWRTX
WEST TEXAS WEATHER ROUNDUP
NATIONAL WEATHER SERVICE LUBBOCK TX
400 PM CDT WED JUL 29 2015

NOTE: "FAIR" INDICATES FEW OR NO CLOUDS BELOW 12,000 FEET WITH NO
SIGNIFICANT WEATHER AND/OR OBSTRUCTIONS TO VISIBILITY.

TXZ004-006>008-010-012-014-016-OKZ002-292200-
TEXAS PANHANDLE/OKLAHOMA PANHANDLE

CITY           SKY/WX    TMP DP  RH WIND       PRES   REMARKS
AMARILLO       SUNNY     85  68  56 NE7       30.21F
BORGER         MOSUNNY   87  67  51 CALM      30.18F
CANADIAN       SUNNY     89  70  52 CALM      30.12S
DALHART        SUNNY     84  59  42 NE7       30.26F
DUMAS          MOSUNNY   81  63  54 CALM      30.23F
GUYMON         CLOUDY    84  66  54 NE14      30.20F
HEREFORD       SUNNY     88  65  45 MISG      30.21F
PAMPA          PTSUNNY   86  69  55 NE7       30.19F
PERRYTON       CLOUDY    87  67  51 E6        30.17
$$

TXZ026-029-035-045-048-292200-
SOUTHERN PANHANDLE/SOUTH PLAINS/ROLLING PLAINS

CITY           SKY/WX    TMP DP  RH WIND       PRES   REMARKS
CHILDRESS      SUNNY     95  68  41 NE8       30.07F HX  99
SEMINOLE       CLOUDY    95  55  26 SE13G21   30.13F
LUBBOCK        MOSUNNY   93  64  38 NE12      30.15F
PLAINVIEW      SUNNY     90  60  36 N6        30.15F
SNYDER         SUNNY     95  62  33 NE3       30.08F HX  95
$$

TXZ052-054-060>062-072-078-127-140-154-169-292200-
PERMIAN BASIN/CONCHO VALLEY/BIG COUNTRY/EDWARDS PLATEAU

CITY           SKY/WX    TMP DP  RH WIND       PRES   REMARKS
ABILENE        MOSUNNY   98  62  30 S3        30.04F HX  99
BIG SPRING     MOSUNNY   94  57  29 E6        30.09F
BRADY          SUNNY    100  61  27 CALM      30.04F HX 101
BROWNWOOD      LGT RAIN  97  61  30 NE3       30.03F HX  97
JUNCTION       SUNNY    100  56  23 CALM      30.03F HX  99
MIDLAND        MOSUNNY   97  56  25 VRB3      30.07F HX  95
ODESSA         SUNNY     97  53  22 SE10G18   30.09F
SAN ANGELO     MOSUNNY  101  63  28 E12       30.02F HX 103
SONORA         SUNNY     97  57  26 CALM      30.08F HX  95
SWEETWATER     CLOUDY    91  64  41 NE6       30.10F
WINK           MOSUNNY  100  54  21 MISG      30.04F HX  98
$$

TXZ055-058-074-075-080-082-292200-
FAR WEST/SOUTHWEST MOUNTAINS/TRANS PECOS

CITY           SKY/WX    TMP DP  RH WIND       PRES   REMARKS
ALPINE         CLOUDY    82  61  49 SE13      30.23F
DRYDEN           N/A    101  60  25 SE13G20   30.02F HX 101
EL PASO        MOSUNNY   92  58  31 SE12      30.10F
FORT STOCKTON  MOSUNNY   97  56  25 E9G20     30.06F HX  95
GUADALUPE PASS SUNNY     81  59  47 NE22G33   30.26F
MARFA          PTSUNNY   84  55  37 SE3       30.22S
PECOS          SUNNY    100  57  24 E16G24    30.02F HX  98
PRESIDIO       FAIR      98  58  25 MISG      30.00F HX  97
$$

TXZ014-016-019-021>030-083-292200
TEXAS TECH WEST TEXAS MESONET/TEXAS PANHANDLE/NORTHERN SOUTH PLAINS

CITY           SKY/WX    TMP DP  RH WIND       PRES   REMARKS
ABERNATHY 5ENE   N/A     90  62  39 NE8       30.16F
AMARILLO 9NNE    N/A     85  68  56 N8        30.19F
AMARILLO 7SSE    N/A     85  67  55 N2        30.21F
AMHERST 1NE      N/A     90  61  38 NE8       30.18F
BOOTLEG 11WNW    N/A     82  64  53 E6        30.27F
CANADIAN 6E      N/A     91  68  46 SE8       30.11S HX  95
CAPROCK CYN SP   N/A     92  63  37 NE5       30.12F
CHILDRESS 2NNE   N/A     94  68  42 N7        30.06F HX  98
CLARENDON 2WSW   N/A     91  64  39 NE7       30.13F
CLAUDE 12SW      N/A     87  67  50 N3        30.18F
DIMMITT 2NE      N/A     88  61  39 N7        30.21F
FLOYDADA 2NNE    N/A     90  62  39 NE6       30.14F
FRIONA 2NE       N/A     85  63  47 NE8       30.22F
GOODLETT 3W      N/A     97  63  32 N6        30.02F HX  99
HART 3N          N/A     88  63  43 NE7       30.19F
HEREFORD 2NW     N/A     86  61  43 N7        30.21F
MCLEAN 1E        N/A     88  66  47 NE6       30.13F
MEMPHIS 1NE      N/A     92  67  43 NE3       30.09S HX  95
MULESHOE 2SSW    N/A     88  62  42 NE8       30.20F
OLTON 6S         N/A     89  62  40 NE8       30.17F
PALO DURO SP     N/A     89  65  45 W1        30.19F
PAMPA 2E         N/A     85  69  57 NE6       30.18F
PLAINVIEW 1S     N/A     91  64  40 NE3       30.15F
SILVERTON 7ESE   N/A     91  65  43 N7        30.15F
TULIA 2ENE       N/A     92  61  35 NE7       30.17F
TURKEY 2WSW      N/A     94  65  38 NE7       30.10S HX  96
UMBARGER 3NNE    N/A     86  65  48 N5        30.22F
$$

TXZ033>036-039>041-045>048-292200
TEXAS TECH WEST TEXAS MESONET/SOUTH PLAINS

CITY           SKY/WX    TMP DP  RH WIND       PRES   REMARKS
AIKEN 3WSW       N/A     92  67  44 N5        30.17F HX  95
ANDREWS 2NE      N/A     98  48  18 SE8       30.10F
ANTON 6SSW       N/A     91  64  40 NE7       30.15F
BROWNFIELD 2S    N/A     90  59  35 E10       30.14S
DENVR CTY 7WNW   N/A     92  54  27 E8        30.14F
GAIL 2ESE        N/A     96  61  31 E8        30.07F HX  95
LAMESA 2SE       N/A     97  58  26 NE8       30.11F HX  96
LEVELLAND 4S     N/A     93  58  31 E7        30.15F
LUBBOCK 3WNW     N/A     91  62  37 NE8       30.15F
MORTON 1ENE      N/A     91  60  35 E6        30.17F
ODONNELL 1N      N/A     82  60  47 S18       30.14R
PLAINS 3N        N/A     92  58  31 SE8       30.16F
RALLS 1SE        N/A     90  63  40 NE5       30.14F
REESE CENTER     N/A     91  60  34 NE7G20    30.15F
SEAGRAVES 1SW    N/A     92  57  30 E7        30.13F
SEMINOLE 2NNE    N/A     92  54  27 E10       30.12F
SLATON 2NE       N/A     95  59  30 E7        30.13F
SNYDER 3E        N/A     96  60  29 N2        30.07F HX  96
SUNDOWN 8SW      N/A     94  60  31 E8        30.15F
TAHOKA 3NNE      N/A     94  64  37 NE6       30.12F HX  95
WOLFFORTH 6SSW   N/A     93  63  37 NE6       30.14F
$$

TXZ031-032-036>038-042>044-292200-
TEXAS TECH WEST TEXAS MESONET/ROLLING PLAINS

CITY           SKY/WX    TMP DP  RH WIND       PRES   REMARKS
ASPERMONT 3NE    N/A    102  61  26 NE5       30.01F HX 103
FLUVANNA 3WNW    N/A     95  58  29 SE5       30.09F
GRAHAM 5SSW      N/A     92  60  33 E9        30.10F
GUTHRIE 10WSW    N/A     96  62  31 N7        30.03F HX  97
HASKELL 1NW      N/A     99  59  26 N2        30.01F HX  98
JAYTON 1SSE      N/A    100  61  27 SE7       30.03F HX 101
KNOX CITY 3NW    N/A    100  57  23 SE6       30.00F HX  99
LK A HENRY 1NW   N/A    100  62  28 N2        30.06F HX 101
NORTHFIELD 1S    N/A     95  68  42 NE7       30.07F HX  99
ODELL 4ENE       N/A    100  64  30 SE3       30.01F HX 103
PADUCAH 10SW     N/A     97  64  32 N7        30.05F HX  99
POST 1NE         N/A     93  61  33 SE6       30.09F
RRING SPRGS 3N   N/A     91  67  45 NE8       30.10F
SEYMOUR 3NW      N/A    100  60  26 E5        29.99F HX 100
SPUR 1W          N/A     95  60  30 NE5       30.06F
WEINERT 2NNE     N/A    101  64  30 CALM      30.01F HX 104
WHITE RVR 6NE    N/A     92  64  38 N5        30.10F
$$

TXZ052-054-060>062-072-078-127-140-154-169-292200-
TEXAS TECH WEST TEXAS MESONET/PERMIAN BASIN/
CONCHO VALLEY/BIG COUNTRY/EDWARDS PLATEAU

CITY           SKY/WX    TMP DP  RH WIND       PRES   REMARKS
COYANOSA 2N      N/A     98  57  24 E13       30.03F HX  97
JUNCTION 1SSW    N/A    100  58  24 S7        30.03F HX 100
MERTZON 3NNE     N/A     96  64  34 NE9       30.05F HX  98
SAN ANGELO 7NW   N/A    100  57  24 E7        30.03F HX  98
STRLNG CT 4WSW   N/A    100  58  25 E6        30.06F HX  99
ST LAWRNCE 5SW   N/A     97  57  26 E9        30.07F HX  96
SWEETWATR 11SW   N/A     96  63  33 NE2       30.08F HX  98
WALL 1E          N/A     98  59  27 NE7       30.03F HX  98
$$

TXZ055-058-074-075-080-082-292200-
TEXAS TECH WEST TEXAS MESONET/FAR WEST/SOUTHWEST MOUNTAINS/TRANS PECOS

CITY           SKY/WX    TMP DP  RH WIND       PRES   REMARKS
PRSMN GAP BBNP   N/A     97  57  26 E13G22    30.03F HX  96
$$


USA.gov is the U.S. government's official web portal to all federal, state and local government web resources and services.